Погода Оловянная

Погода Оловянная : погода сейчас, прогноз погоды и архив. Всё, что Вы хотите узнать о погоде Оловянная!

Хотите узнать прогноз погоды Оловянная? Тогда Вам сюда: Погода Оловянная

Поиск расширенной информации на нашем сайте:

Другие новости

Новости СМИ2

Главная страница сайта

Новости сайта

02.10.2013

Напоминаем, что на нашем новом сайте вы можете получить высокодетализированные прогнозы погоды по пунктам России, СНГ и мира (включающие важные для авиации метеовеличины, такие как направление и скорость ветра, видимость, явления погоды, количество и форма облачности, нижняя и верхняя граница облачности), а также ознакомиться с разнообразными материалами по авиационной метеорологии и подборкой полезных ссылок на эту тему.

Сайт Метеоцентр.Азия посвящён разработке технологий оптимизации авиаметеорологического обслуживания, включая проектирование и перспективное создание нескольких автоматизированных авиаметеорологических систем:
- система выпуска высокодетальных прогностических карт явлений погоды для нижнего воздушного пространства по России и ближнему зарубежью;
- система верификации прогнозов TAF (выпускаемых синоптиками официальных АМСГ РФ и ближнего зарубежья) и AUTOTAF (выпускаемых сайтом Метеоцентр.Азия) - выявление ошибок, онлайн-сопоставление с фактической погодой METAR, автоматическое внесение коррективов в прогнозы при резком отклонении фактической погоды от прогноза, подсчёт оправдываемости прогнозов по элементам и в целом;
- система обработки, анализа и отображения авиаметеорологической информации для применения провайдерами метеорологической информации.

Рекомендуем: Общение на форуме

Погода Оловянная - сегодня

Время (UTC), дата Ветер
(°,м/с) 
Видим.   Явления Облачность Т
(°С)
Тd
(°С)
f(%) Тe
(°С)
Pmin
(гПа)
dP
(гПа)
Po
(мм)
O2
(г/м3)
Тmin Tmax R s Состояние
почвы
18 21.02.17 140 (ЮВ) 20000 м    ясно 
-17.4 -22.3 66 -18  1026.8  0.5  707  306           
21 21.02.17 300 (СЗ) 20000 м    ясно 
-19.4 -23.2 72 -20  1027.7  0.1  707  308           
00 22.02.17 030 (СВ) 20000 м    8/8 2000 м средняя 
[Ac lent]
-19.5 -24 67 -20  1028.7  0.9  708  309  -21.3      10  равномерный
сухой снег
100% 
03 22.02.17 320 (СЗ) 20000 м    9/0 верхняя 
[Cs]
-12.6 -20.7 51 -13  1027.2  0.8  709  301           
06 22.02.17 340 (С) 20000 м    8/0 верхняя 
[Cs]
-9.8 -19.5 45 -14  1025.4  -0.8  708  297           
09 22.02.17 300 (СЗ) 20000 м    3/0 верхняя 
[Ci fib]
-9.8 -20.2 42 -12  1025.5  0.1  708  297           
12 22.02.17 тихо ()   20000 м    ясно 
-17.3 -21.9 67 -17  1029.3  1.2  709  307    -8.9       
15 22.02.17 тихо ()   20000 м    ясно 
-18.5 -22.5 71 -19  1030  0.3  709  308           
18 22.02.17 120 (ЮВ) 20000 м    ясно 
-20.7 -24.2 73 -21  1030.6  -0.2  709  311           
21 22.02.17 160 (Ю) 20000 м    ясно 
-22.3 -24.4 83 -27  1029.6  -1.4  708  312           
00 23.02.17 130 (ЮВ) 20000 м    4/4 2000 м средняя 
[Ac lent]
-24.7 -27.2 80 -28  1029  -1.4  707  315  -25.2      10  равномерный
сухой снег
100% 
03 23.02.17 130 (ЮВ) 20000 м    3/0 верхняя 
[Cc]
-17 -21.8 66 -22  1025.5  -0.8  707  305           
06 23.02.17 130 (ЮВ) 20000 м    3/0 верхняя 
[Cc]
-11.4 -17.3 62 -15  1021.3  -2.1  705  298           
09 23.02.17 150 (ЮВ) 20000 м    ясно 
-10.6 -16.5 62 -15  1020.4  -0.5  704  297           
12 23.02.17 140 (ЮВ) 20000 м    ясно 
-14.2 -17.5 76 -18  1022.4  -0.5  705  301    -9       
15 23.02.17 130 (ЮВ) 20000 м    ясно 
-17.2 -19.6 82 -17  1023.8  0.4  705  305           
18 23.02.17 210 (ЮЗ) 20000 м    ясно 
-11.9 -14.2 83 -12  1021.6  -0.4  705  298           
21 23.02.17 250 (З) 20000 м    ясно 
-12.3 -14.2 86 -14  1021.5  -0.2  705  299           
00 24.02.17 170 (Ю) 20000 м    8/8 2000 м средняя 
[Ac lent]
-8.6 -12.6 73 -8  1020.2  705  294  -17.3      10  равномерный
сухой снег
100% 
03 24.02.17 340 (С) 20000 м    8/8 2000 м средняя 
[Ac lent]
-2.7 -9.1 61 -4  1017.8  -0.5  704  287           
06 24.02.17 310 (СЗ) 7-11{12}  20000 м    3/3 2000 м средняя 
[Ac lent]
-0.9 -8.6 56 -5  1016.1  -1.1  704  285           
09 24.02.17 300 (СЗ) 3{11}  20000 м    ясно 
-1.6 -9.7 54 -4  1017.5  1.1  704  286           
12 24.02.17 250 (З) 20000 м    ясно 
-7.6 -12.9 66 -10  1020.8  1.4  705  293    -0.4       
15 24.02.17 250 (З) 20000 м    ясно 
-9 -14 67 -14  1021.8  0.4  706  295           
18 24.02.17 290 (З) 20000 м    ясно 
-9.4 -14.6 66 -12  1022.6  0.6  706  296           
Время (UTC), дата Ветер
(°,м/с) 
Видим.   Явления Облачность Т
(°С)
Тd
(°С)
f(%) Тe
(°С)
Pmin
(гПа)
dP
(гПа)
Po
(мм)
O2
(г/м3)
Тmin Tmax R s Состояние
почвы

Для получения пояснительной информации подведите курсор к названию столбца.

ПОГОДА Оловянная - архив

Всё, что Вы хотите узнать о погоде Оловянная - удобно и подробно!

Выберите нужную дату (начиная с 1 января 2015* года) и нажмите кнопку "Найти".
Будут отображены архивные сводки погоды по пункту Оловянная, начиная с указанной даты.


Отображать данные в формате CSV (для использования в таблицах Excel)


Внимание! Наш архив погоды предназначен исключительно для личного некоммерческого использования в познавательных целях. Если Вам необходимы официальные справки о состоянии погоды (для производственных, юридических, коммерческих и т.п. целей), обращайтесь в органы Росгидромета.

*Примечание: данная дата относится к архиву по метеостанциям СССР (Россия, СНГ, Балтия).
Архив по метеостанциям Зарубежной Европы и Азии (кроме Китая) хранится 10 дней, по другим регионам земного шара (Китай, Африка, Америка, Австралия, Океания) - 1 день.

Оловянная - район местоположения метеостанции


Название, широта, долгота, высота метеостанции:
Оловянная 50.9°ш. 115.6°д. 640 м над ур. моря [Российская Федерация]

Дополнительная информация

В oтличие oт бoльшинства пoгoдных сайтoв мы публикуем пoдрoбную метеoинфoрмацию в детальнoм прoфессиoнальнoм фoрмате.

Характеристики температуры и влажнoсти вoздуха измеряются на высoте 2 м в тени вдали oт зданий и деревьев.
Скoрoсть ветра измеряется на высoте 10 м (на урoвне рoста челoвека скoрoсть ветра ниже в 1.5-2 раза). Если метеoстанция нахoдится в гoрoде или в лесу, тo скoрoсть ветра занижена на 2-4 м/с пo сравнению с oткрытым местoм. Скoрoсть ветра над акватoриями крупных рек и oзёр, а также на вершинах хoлмoв на 2-5 м/с выше, чем в oбычных услoвиях.
Атмoсфернoе давление в разных тoчках местнoсти мoжет значительнo oтличаться oт давления на метеoстанции, в зависимoсти oт услoвий рельефа (при пoдъёме на 10 м давление пoнижается примернo на 1 мм рт.ст.).